This demonstration page uses our WeatherBlox Daily Observations layout. Learn more.

Left ArrowRight Arrow

Hourly Observations for February 15, 2019

Temp ( °F °C ) Dew Point ( °F °C ) Humidity (%) Winds ( mph kmh ) Pressure ( in mb ) Visibility ( mi km ) Precip ( " mm )
12:53 am 00:53 Cloudy 53 11.7 33 0.6 47 47 SSW 3 6 29.96 1015 10 16 0.00 0.00
1:53 am 01:53 Mostly Clear 52 11.1 35 1.7 53 53 S 7 11 29.95 1014 10 16 0.00 0.00
2:53 am 02:53 Clear 49 9.4 38 3.3 66 66 VRB 3 6 29.93 1014 10 16 0.00 0.00
3:27 am 03:27 Mostly Cloudy 47 8.3 38 3.3 71 71 Calm 29.96 1014 10 16 0.00 0.00
3:34 am 03:34 Mostly Cloudy 47 8.3 39 3.9 74 74 Calm 29.96 1014 10 16 0.00 0.00
3:53 am 03:53 Mostly Clear 47 8.3 41 5 80 80 Calm 29.92 1013 10 16 0.00 0.00
4:53 am 04:53 Clear 51 10.6 46 7.8 83 83 SSW 6 9 29.89 1012 10 16 0.00 0.00
5:53 am 05:53 Clear 50 10 46 7.8 86 86 SW 5 7 29.90 1013 10 16 0.00 0.00
6:53 am 06:53 Cloudy 51 10.6 47 8.3 86 86 SW 5 7 29.89 1012 10 16 0.00 0.00
7:53 am 07:53 Cloudy 51 10.6 48 8.9 89 89 SW 7 11 29.91 1013 10 16 0.00 0.00
8:13 am 08:13 Cloudy 52 11.1 48 8.9 86 86 SW 7 11 29.94 1014 10 16 0.00 0.00
8:53 am 08:53 Cloudy 52 11.1 49 9.4 89 89 SW 6 9 29.92 1013 10 16 0.00 0.00
9:39 am 09:39 Cloudy 53 11.7 50 10 89 89 SW 6 9 29.93 1014 10 16 0.00 0.00
9:53 am 09:53 Cloudy 54 12.2 50 10 87 87 SW 8 13 29.91 1013 10 16 0.00 0.00
10:53 am 10:53 Cloudy 56 13.3 52 11.1 87 87 SW 7 11 29.94 1014 10 16 0.00 0.00
11:53 am 11:53 Cloudy 56 13.3 52 11.1 87 87 SW 8 13 29.93 1014 10 16 0.00 0.00
12:53 pm 12:53 Cloudy 59 15 54 12.2 83 83 VRB 6 9 29.90 1012 10 16 0.00 0.00
1:02 pm 13:02 Cloudy 59 15 54 12.2 83 83 VRB 7 11 29.89 1012 10 16 0.00 0.00
1:53 pm 13:53 Cloudy 60 15.6 54 12.2 80 80 SSW 8 13 29.86 1011 10 16 0.00 0.00
2:53 pm 14:53 Cloudy 59 15 55 12.8 87 87 SSW 7 11 29.86 1011 10 16 0.00 0.00
3:00 pm 15:00 Cloudy 59 15 55 12.8 87 87 SW 6 9 29.85 1011 10 16 0.00 0.00
3:53 pm 15:53 Cloudy 59 15 55 12.8 87 87 S 3 6 29.82 1010 10 16 0.00 0.00
4:53 pm 16:53 Cloudy 59 15 56 13.3 90 90 SSW 7 11 29.82 1010 10 16 0.00 0.00
5:53 pm 17:53 Cloudy 59 15 57 13.9 93 93 VRB 5 7 29.83 1010 10 16 0.00 0.00
6:03 pm 18:03 Cloudy 59 15 57 13.9 93 93 SSW 5 7 29.83 1010 10 16 0.00 0.00
6:53 pm 18:53 Cloudy 58 14.4 57 13.9 97 97 SSW 3 6 29.84 1011 10 16 0.00 0.00
7:53 pm 19:53 Cloudy with Light Rain 58 14.4 58 14.4 100 100 Calm 29.83 1010 7 11 0.01 0.25
8:53 pm 20:53 Cloudy with Rain 58 14.4 58 14.4 100 100 SW 3 6 29.82 1010 4 6 0.07 1.78
9:53 pm 21:53 Cloudy 58 14.4 58 14.4 100 100 SSW 6 9 29.80 1009 10 16 0.03 0.76
10:03 pm 22:03 Cloudy with Light Rain 58 14.4 58 14.4 100 100 SSW 5 7 29.81 1009 10 16 0.00 0.03
10:25 pm 22:25 Cloudy with Light Rain 59 15 59 15 100 100 SSW 8 13 29.80 1009 10 16 0.00 0.03
10:43 pm 22:43 Cloudy with Rain 59 15 59 15 100 100 SSW 5 7 29.79 1009 5 8 0.04 1.02
10:53 pm 22:53 Cloudy with Light Rain 58 14.4 58 14.4 100 100 VRB 7 11 29.78 1009 7 11 0.04 1.02
11:53 pm 23:53 Cloudy 59 15 59 15 100 100 SSW 7 11 29.75 1008 10 16 0.01 0.25

Powered by AerisWeather